| time (UTC) | temp F | wind direction | speed knots | gust knots | rain 1hr in | rain 24hr in | rain mn in | humidity % | barometer mb |
| 20260504215043 | 74 | 2 | 5.2 | 11.3 | 0.00 | 0.00 | 0.00 | 35 | 1007.9 |
| 20260504214023 | 75 | 13 | 2.6 | 6.1 | 0.00 | 0.00 | 0.00 | 32 | 1008.1 |
| 20260504213022 | 75 | 106 | 1.7 | 7.8 | 0.00 | 0.00 | 0.00 | 34 | 1008.1 |
| 20260504212023 | 75 | 350 | 4.3 | 8.7 | 0.00 | 0.00 | 0.00 | 32 | 1008.1 |
| 20260504211042 | 75 | 11 | 3.5 | 8.7 | 0.00 | 0.00 | 0.00 | 32 | 1008.1 |
| 20260504210024 | 74 | 29 | 4.3 | 11.3 | 0.00 | 0.00 | 0.00 | 32 | 1008.1 |
| 20260504205044 | 74 | 310 | 2.6 | 7.0 | 0.00 | 0.00 | 0.00 | 34 | 1008.2 |
| 20260504204043 | 74 | 10 | 2.6 | 4.3 | 0.00 | 0.00 | 0.00 | 31 | 1008.4 |
| 20260504203023 | 74 | 355 | 3.5 | 7.0 | 0.00 | 0.00 | 0.00 | 33 | 1008.4 |
| 20260504202030 | 74 | 334 | 3.5 | 8.7 | 0.00 | 0.00 | 0.00 | 33 | 1008.4 |
| 20260504201047 | 74 | 1 | 3.5 | 7.0 | 0.00 | 0.00 | 0.00 | 35 | 1008.4 |
| 20260504200027 | 74 | 44 | 1.7 | 5.2 | 0.00 | 0.00 | 0.00 | 33 | 1008.4 |
| 20260504195047 | 74 | 10 | 2.6 | 7.0 | 0.00 | 0.00 | 0.00 | 37 | 1008.4 |
| 20260504194045 | 74 | 266 | 2.6 | 6.1 | 0.00 | 0.00 | 0.00 | 35 | 1008.4 |
| 20260504193046 | 73 | 52 | 2.6 | 6.1 | 0.00 | 0.00 | 0.00 | 36 | 1008.4 |
| 20260504192027 | 72 | 209 | 0.9 | 2.6 | 0.00 | 0.00 | 0.00 | 37 | 1008.4 |
| 20260504191027 | 71 | 34 | 1.7 | 6.1 | 0.00 | 0.00 | 0.00 | 38 | 1008.4 |
| 20260504190025 | 71 | 5 | 3.5 | 7.0 | 0.00 | 0.00 | 0.00 | 35 | 1008.4 |
| 20260504185025 | 71 | 35 | 3.5 | 7.8 | 0.00 | 0.00 | 0.00 | 37 | 1008.6 |
| 20260504184145 | 70 | 20 | 2.6 | 6.1 | 0.00 | 0.00 | 0.00 | 37 | 1008.6 |
| 20260504183023 | 70 | 45 | 2.6 | 6.1 | 0.00 | 0.00 | 0.00 | 39 | 1008.5 |
| 20260504182023 | 70 | 36 | 3.5 | 6.1 | 0.00 | 0.00 | 0.00 | 40 | 1008.6 |
| 20260504181022 | 69 | 64 | 1.7 | 5.2 | 0.00 | 0.00 | 0.00 | 40 | 1008.7 |
| 20260504180017 | 69 | 39 | 2.6 | 7.8 | 0.00 | 0.00 | 0.00 | 40 | 1008.8 |
| 20260504175016 | 68 | 46 | 2.6 | 7.0 | 0.00 | 0.00 | 0.00 | 41 | 1008.8 |
| 20260504174016 | 67 | 51 | 3.5 | 7.0 | 0.00 | 0.00 | 0.00 | 41 | 1008.8 |
| 20260504173050 | 66 | 44 | 3.5 | 9.6 | 0.00 | 0.00 | 0.00 | 42 | 1008.5 |
| 20260504172049 | 66 | 61 | 3.5 | 8.7 | 0.00 | 0.00 | 0.00 | 42 | 1008.5 |
| 20260504171031 | 65 | 35 | 3.5 | 7.8 | 0.00 | 0.00 | 0.00 | 42 | 1008.6 |
| 20260504151027 | 58 | 90 | 0.9 | 4.3 | 0.00 | 0.00 | 0.00 | 56 | 1008.8 |
| 20260504141047 | 53 | 25 | 2.6 | 4.3 | 0.00 | 0.00 | 0.00 | 60 | 1008.4 |
| 20260504081027 | 57 | 31 | 3.5 | 4.3 | 0.00 | 0.00 | 0.00 | 44 | 1008.4 |
| 20260504060110 | 58 | 34 | 2.6 | 5.2 | 0.00 | 0.00 | 0.00 | 45 | 1009.2 |
| 20260504045018 | 62 | 30 | 1.7 | 1.7 | 0.00 | 0.00 | 0.00 | 44 | 1009.2 |
| 20260504044023 | 63 | 39 | 1.7 | 2.6 | 0.00 | 0.00 | 0.00 | 43 | 1009.4 |
| 20260504043022 | 64 | 110 | 0.9 | 2.6 | 0.00 | 0.00 | 0.00 | 42 | 1009.5 |
| 20260504042024 | 65 | 56 | 1.7 | 2.6 | 0.00 | 0.00 | 0.00 | 39 | 1009.2 |
| 20260504041045 | 67 | 197 | 1.7 | 1.7 | 0.00 | 0.00 | 0.00 | 38 | 1009.2 |
| 20260504040024 | 68 | 213 | 0.0 | 0.9 | 0.00 | 0.00 | 0.00 | 40 | 1009.2 |
| 20260504035025 | 69 | 256 | 0.0 | 0.9 | 0.00 | 0.00 | 0.00 | 30 | 1009.2 |
| 20260504034049 | 69 | 257 | 1.7 | 2.6 | 0.00 | 0.00 | 0.00 | 29 | 1009.2 |
| 20260504033017 | 69 | 241 | 1.7 | 1.7 | 0.00 | 0.00 | 0.00 | 29 | 1009.1 |
| 20260504032038 | 70 | 241 | 0.9 | 1.7 | 0.00 | 0.00 | 0.00 | 28 | 1009.1 |
| 20260504031044 | 70 | 242 | 1.7 | 1.7 | 0.00 | 0.00 | 0.00 | 28 | 1009.2 |
| 20260504030022 | 70 | 242 | 1.7 | 1.7 | 0.00 | 0.00 | 0.00 | 28 | 1008.9 |
| 20260504025022 | 71 | 244 | 0.9 | 1.7 | 0.00 | 0.00 | 0.00 | 28 | 1009.2 |
| 20260504024043 | 71 | 271 | 2.6 | 2.6 | 0.00 | 0.00 | 0.00 | 29 | 1009.2 |
| 20260504023023 | 72 | 262 | 2.6 | 2.6 | 0.00 | 0.00 | 0.00 | 30 | 1009.2 |
| 20260504022023 | 72 | 273 | 2.6 | 4.3 | 0.00 | 0.00 | 0.00 | 28 | 1009.2 |
| 20260504021043 | 72 | 272 | 2.6 | 4.3 | 0.00 | 0.00 | 0.00 | 31 | 1009.2 |
| 20260504020022 | 72 | 274 | 3.5 | 5.2 | 0.00 | 0.00 | 0.00 | 31 | 1009.2 |
| 20260504015021 | 72 | 281 | 4.3 | 5.2 | 0.00 | 0.00 | 0.00 | 30 | 1009.2 |
| 20260504014023 | 73 | 284 | 4.3 | 6.1 | 0.00 | 0.00 | 0.00 | 31 | 1009.5 |
| 20260504013024 | 73 | 276 | 4.3 | 7.8 | 0.00 | 0.00 | 0.00 | 31 | 1009.5 |
| 20260504012025 | 74 | 285 | 5.2 | 7.0 | 0.00 | 0.00 | 0.00 | 29 | 1009.5 |
| 20260504011046 | 74 | 278 | 3.5 | 6.1 | 0.00 | 0.00 | 0.00 | 29 | 1009.5 |
| 20260504010046 | 74 | 254 | 2.6 | 5.2 | 0.00 | 0.00 | 0.00 | 31 | 1009.8 |
| 20260504005047 | 75 | 281 | 4.3 | 7.0 | 0.00 | 0.00 | 0.00 | 27 | 1009.9 |
| 20260504004025 | 75 | 282 | 4.3 | 6.1 | 0.00 | 0.00 | 0.00 | 26 | 1009.8 |
| 20260504003027 | 76 | 279 | 4.3 | 7.0 | 0.00 | 0.00 | 0.00 | 25 | 1009.9 |
| 20260504002026 | 76 | 259 | 2.6 | 5.2 | 0.00 | 0.00 | 0.00 | 27 | 1009.9 |
| 20260504001105 | 76 | 268 | 4.3 | 7.8 | 0.00 | 0.00 | 0.00 | 25 | 1010.1 |
| 20260504000024 | 76 | 266 | 3.5 | 5.2 | 0.00 | 0.00 | 0.00 | 23 | 1010.3 |
| 20260503235024 | 77 | 282 | 5.2 | 8.7 | 0.00 | 0.00 | 0.00 | 22 | 1010.3 |
| 20260503234044 | 77 | 252 | 2.6 | 7.0 | 0.00 | 0.00 | 0.00 | 26 | 1010.3 |
| 20260503233024 | 76 | 250 | 3.5 | 5.2 | 0.00 | 0.00 | 0.00 | 26 | 1010.5 |
| 20260503232023 | 76 | 214 | 3.5 | 7.0 | 0.00 | 0.00 | 0.00 | 25 | 1010.5 |
| 20260503231044 | 76 | 228 | 3.5 | 7.0 | 0.00 | 0.00 | 0.00 | 25 | 1010.6 |
| 20260503230025 | 75 | 240 | 4.3 | 8.7 | 0.00 | 0.00 | 0.00 | 27 | 1010.9 |
| 20260503225046 | 75 | 248 | 3.5 | 7.0 | 0.00 | 0.00 | 0.00 | 29 | 1011.0 |
| 20260503224024 | 75 | 254 | 4.3 | 8.7 | 0.00 | 0.00 | 0.00 | 29 | 1011.1 |
| 20260503223024 | 75 | 264 | 5.2 | 8.7 | 0.00 | 0.00 | 0.00 | 29 | 1011.4 |
| 20260503222024 | 75 | 273 | 4.3 | 7.0 | 0.00 | 0.00 | 0.00 | 28 | 1011.5 |
| 20260503221043 | 75 | 267 | 4.3 | 7.0 | 0.00 | 0.00 | 0.00 | 31 | 1011.7 |
| 20260503220024 | 75 | 283 | 6.1 | 11.3 | 0.00 | 0.00 | 0.00 | 28 | 1011.9 |